When you browse on this site, cookies collect data to enhance your experience and personalize the content and advertising you see.
Visit our Privacy Policy to learn more. By continuing to use the site, you agree to this use of cookies and data.
  • In Austria
  • List of Countries
  • For 7 days
  • Water Temperature
  • Weather Map
  • News
  • Weather Widgets
  • user-avatar
    Login

    Hourly Weather Tolcayuca

    Today, 12 November, Tuesday

    Time Temperature Precipitation Wind Pressure Humidity
    00:00 +13°C° 0 mm 2 mps 575 mmHg 74%
    01:00 +13°C° 0 mm 2 mps 575 mmHg 76%
    02:00 +12°C° 0 mm 2 mps 575 mmHg 78%
    03:00 +12°C° 0 mm 2 mps 575 mmHg 81%
    04:00 +12°C° 0 mm 2 mps 576 mmHg 83%
    05:00 +11°C° 0 mm 3 mps 576 mmHg 86%
    06:00 +12°C° 0 mm 3 mps 577 mmHg 80%
    07:00 +14°C° 0 mm 2 mps 578 mmHg 74%
    08:00 +15°C° 0 mm 2 mps 579 mmHg 68%
    09:00 +14°C° 0.1 mm 3 mps 579 mmHg 67%
    10:00 +15°C° 0.1 mm 4 mps 579 mmHg 67%
    11:00 +15°C° 0.1 mm 5 mps 579 mmHg 66%
    12:00 +15°C° 0 mm 5 mps 578 mmHg 66%
    13:00 +14°C° 0 mm 5 mps 577 mmHg 66%
    14:00 +14°C° 0 mm 6 mps 577 mmHg 66%
    15:00 +13°C° 0 mm 5 mps 576 mmHg 69%
    16:00 +10°C° 0 mm 5 mps 576 mmHg 72%
    17:00 +10°C° 0 mm 4 mps 576 mmHg 75%
    18:00 +10°C° 0 mm 4 mps 576 mmHg 77%
    19:00 +9°C° 0 mm 3 mps 576 mmHg 79%
    20:00 +9°C° 0 mm 2 mps 576 mmHg 81%
    21:00 +9°C° 0 mm 2 mps 576 mmHg 81%
    22:00 +10°C° 0 mm 1 mps 576 mmHg 81%
    23:00 +10°C° 0 mm 1 mps 576 mmHg 81%

    Tomorrow, 13 November, Wednesday

    Time Temperature Precipitation Wind Pressure Humidity
    00:00 +9°C° 0 mm 1 mps 576 mmHg 82%
    01:00 +9°C° 0 mm 1 mps 575 mmHg 83%
    02:00 +8°C° 0 mm 0 mps 575 mmHg 84%
    03:00 +9°C° 0 mm 1 mps 575 mmHg 85%
    04:00 +9°C° 0 mm 1 mps 575 mmHg 86%
    05:00 +9°C° 0 mm 1 mps 574 mmHg 87%
    06:00 +10°C° 0 mm 1 mps 575 mmHg 80%
    07:00 +11°C° 0 mm 1 mps 576 mmHg 74%
    08:00 +13°C° 0 mm 1 mps 577 mmHg 68%
    09:00 +15°C° 0 mm 2 mps 578 mmHg 60%
    10:00 +17°C° 0 mm 2 mps 578 mmHg 52%
    11:00 +19°C° 0 mm 3 mps 579 mmHg 45%
    12:00 +19°C° 0 mm 3 mps 578 mmHg 44%
    13:00 +20°C° 0 mm 2 mps 578 mmHg 44%
    14:00 +20°C° 0 mm 2 mps 577 mmHg 43%
    15:00 +19°C° 0 mm 2 mps 577 mmHg 49%
    16:00 +19°C° 0 mm 1 mps 577 mmHg 55%
    17:00 +18°C° 0 mm 1 mps 576 mmHg 61%
    18:00 +16°C° 0.1 mm 1 mps 577 mmHg 63%
    19:00 +16°C° 0.1 mm 1 mps 577 mmHg 64%
    20:00 +15°C° 0.1 mm 1 mps 577 mmHg 65%
    21:00 +14°C° 0 mm 1 mps 577 mmHg 69%
    22:00 +13°C° 0 mm 1 mps 576 mmHg 72%
    23:00 +13°C° 0 mm 1 mps 576 mmHg 75%

    Day after tomorrow, 14 November, Thursday

    Time Temperature Precipitation Wind Pressure Humidity
    00:00 +13°C° 0 mm 1 mps 575 mmHg 74%
    01:00 +12°C° 0 mm 1 mps 575 mmHg 73%
    02:00 +12°C° 0 mm 1 mps 575 mmHg 72%
    03:00 +12°C° 0 mm 1 mps 575 mmHg 71%
    04:00 +12°C° 0 mm 1 mps 575 mmHg 70%
    05:00 +12°C° 0 mm 1 mps 575 mmHg 69%
    06:00 +13°C° 0 mm 1 mps 576 mmHg 64%
    07:00 +13°C° 0 mm 0 mps 577 mmHg 59%
    08:00 +14°C° 0 mm 0 mps 577 mmHg 54%
    09:00 +18°C° 0 mm 1 mps 578 mmHg 50%
    10:00 +18°C° 0 mm 2 mps 578 mmHg 46%
    11:00 +19°C° 0 mm 2 mps 578 mmHg 42%
    12:00 +19°C° 0 mm 3 mps 578 mmHg 43%
    13:00 +19°C° 0 mm 3 mps 577 mmHg 44%
    14:00 +19°C° 0 mm 4 mps 577 mmHg 46%
    15:00 +18°C° 0 mm 4 mps 577 mmHg 51%
    16:00 +17°C° 0 mm 3 mps 577 mmHg 57%
    17:00 +16°C° 0 mm 3 mps 577 mmHg 63%
    18:00 +14°C° 0 mm 3 mps 577 mmHg 71%
    19:00 +13°C° 0 mm 3 mps 577 mmHg 78%
    20:00 +13°C° 0 mm 2 mps 577 mmHg 86%
    21:00 +12°C° 0 mm 2 mps 577 mmHg 86%
    22:00 +12°C° 0 mm 2 mps 577 mmHg 86%
    23:00 +12°C° 0 mm 2 mps 577 mmHg 85%

    15 November, Friday

    Time Temperature Precipitation Wind Pressure Humidity
    00:00 +10°C° 0 mm 2 mps 577 mmHg 85%
    01:00 +10°C° 0 mm 2 mps 576 mmHg 85%
    02:00 +10°C° 0 mm 2 mps 576 mmHg 84%
    03:00 +10°C° 0 mm 2 mps 576 mmHg 84%
    04:00 +10°C° 0 mm 2 mps 576 mmHg 83%
    05:00 +11°C° 0 mm 1 mps 577 mmHg 82%
    06:00 +11°C° 0 mm 1 mps 577 mmHg 80%
    07:00 +12°C° 0 mm 2 mps 578 mmHg 78%
    08:00 +12°C° 0 mm 2 mps 578 mmHg 76%
    09:00 +13°C° 0 mm 2 mps 578 mmHg 72%
    10:00 +14°C° 0 mm 2 mps 578 mmHg 69%
    11:00 +15°C° 0 mm 2 mps 578 mmHg 65%
    12:00 +15°C° 0 mm 2 mps 578 mmHg 64%
    13:00 +16°C° 0 mm 2 mps 578 mmHg 63%
    14:00 +16°C° 0 mm 2 mps 577 mmHg 62%
    15:00 +14°C° 0 mm 3 mps 577 mmHg 67%
    16:00 +13°C° 0 mm 3 mps 577 mmHg 73%
    17:00 +12°C° 0 mm 4 mps 576 mmHg 78%
    18:00 +11°C° 0 mm 3 mps 577 mmHg 80%
    19:00 +12°C° 0 mm 2 mps 577 mmHg 82%
    20:00 +10°C° 0 mm 2 mps 577 mmHg 84%
    21:00 +10°C° 0 mm 2 mps 577 mmHg 84%
    22:00 +11°C° 0 mm 1 mps 577 mmHg 83%
    23:00 +11°C° 0 mm 1 mps 576 mmHg 82%

    16 November, Saturday

    Time Temperature Precipitation Wind Pressure Humidity
    00:00 +11°C° 0 mm 1 mps 576 mmHg 82%
    01:00 +11°C° 0 mm 1 mps 576 mmHg 82%
    02:00 +11°C° 0 mm 1 mps 575 mmHg 82%
    03:00 +11°C° 0 mm 1 mps 576 mmHg 82%
    04:00 +12°C° 0 mm 1 mps 576 mmHg 81%
    05:00 +12°C° 0 mm 1 mps 576 mmHg 81%
    06:00 +12°C° 0 mm 1 mps 576 mmHg 79%
    07:00 +13°C° 0 mm 1 mps 577 mmHg 76%
    08:00 +12°C° 0 mm 0 mps 577 mmHg 74%
    09:00 +15°C° 0 mm 1 mps 577 mmHg 68%
    10:00 +16°C° 0 mm 1 mps 578 mmHg 63%
    11:00 +19°C° 0 mm 1 mps 578 mmHg 57%
    12:00 +18°C° 0 mm 2 mps 578 mmHg 56%
    13:00 +19°C° 0 mm 2 mps 577 mmHg 54%
    14:00 +19°C° 0 mm 3 mps 577 mmHg 53%
    15:00 +18°C° 0 mm 3 mps 576 mmHg 58%
    16:00 +17°C° 0 mm 3 mps 576 mmHg 64%
    17:00 +16°C° 0 mm 3 mps 576 mmHg 69%
    18:00 +16°C° 0 mm 2 mps 576 mmHg 71%
    19:00 +15°C° 0 mm 2 mps 576 mmHg 74%
    20:00 +15°C° 0 mm 1 mps 576 mmHg 76%
    21:00 +15°C° 0.1 mm 1 mps 576 mmHg 77%
    22:00 +14°C° 0.1 mm 1 mps 576 mmHg 78%
    23:00 +13°C° 0.1 mm 0 mps 575 mmHg 79%

    17 November, Sunday

    Time Temperature Precipitation Wind Pressure Humidity
    00:00 +13°C° 0.1 mm 0 mps 575 mmHg 82%
    01:00 +12°C° 0.1 mm 0 mps 574 mmHg 84%
    02:00 +12°C° 0.1 mm 0 mps 574 mmHg 86%
    03:00 +11°C° 0 mm 0 mps 574 mmHg 87%
    04:00 +11°C° 0 mm 0 mps 574 mmHg 88%
    05:00 +11°C° 0 mm 0 mps 574 mmHg 89%
    06:00 +12°C° 0 mm 0 mps 574 mmHg 83%
    07:00 +13°C° 0 mm 0 mps 575 mmHg 77%
    08:00 +16°C° 0 mm 1 mps 576 mmHg 70%
    09:00 +18°C° 0 mm 1 mps 576 mmHg 63%
    10:00 +18°C° 0 mm 2 mps 576 mmHg 56%
    11:00 +20°C° 0 mm 2 mps 577 mmHg 49%
    12:00 +20°C° 0 mm 3 mps 576 mmHg 49%
    13:00 +20°C° 0 mm 3 mps 576 mmHg 48%
    14:00 +20°C° 0 mm 4 mps 575 mmHg 47%
    15:00 +20°C° 0.1 mm 4 mps 575 mmHg 51%
    16:00 +19°C° 0.1 mm 3 mps 575 mmHg 55%
    17:00 +18°C° 0.1 mm 3 mps 575 mmHg 59%
    18:00 +17°C° 0.3 mm 3 mps 575 mmHg 65%
    19:00 +16°C° 0.3 mm 3 mps 576 mmHg 71%
    20:00 +14°C° 0.3 mm 3 mps 576 mmHg 76%
    21:00 +14°C° 0.2 mm 3 mps 575 mmHg 78%
    22:00 +13°C° 0.2 mm 3 mps 575 mmHg 79%
    23:00 +12°C° 0.2 mm 3 mps 575 mmHg 80%
    Show more